Flight Track Log - Related Links

Times and Time Zones

All times are in EDT time to prevent confusion due to time zone crossing. See the XOJ549 flight status page for this flight to view local times or setup timezone preferences in your user account.

Time Position Orientation Groundspeed Altitude Reporting Facility
EDT Latitude Longitude Course Direction KTS MPH feet Rate Location/Type
Wed 09:38:43 AM 36.0514 -79.9006 55° Northeast 258 297 6,000  Level Washington Center
Wed 09:39:43 AM 36.0997 -79.8286 50° Northeast 273 314 9,500 3,559 Climbing Washington Center
Wed 09:40:41 AM 36.1508 -79.7414 54° Northeast 294 338 13,000 3,429 Climbing Washington Center
Wed 09:41:42 AM 36.2147 -79.6442 51° Northeast 324 373 16,300 2,950 Climbing Washington Center
Wed 09:42:41 AM 36.2700 -79.5544 53° Northeast 344 396 18,900 2,521 Climbing Washington Center
Wed 09:43:00 AM 36.3799 -79.3635 50° Northeast  Level FlightAware Approximate
Wed 09:43:41 AM 36.3250 -79.4642 53° Northeast 363 418 21,300  Level Washington Center
Wed 09:44:00 AM 36.4459 -79.2508 55° Northeast  Level FlightAware Approximate
Wed 09:44:42 AM 36.3997 -79.3492 51° Northeast 370 426 23,800  Level Washington Center
Wed 09:45:43 AM 36.4617 -79.2361 56° Northeast 383 441 25,400 1,636 Climbing Washington Center
Wed 09:46:43 AM 36.5319 -79.1178 54° Northeast 401 461 27,100 1,729 Climbing Washington Center
Wed 09:47:41 AM 36.6044 -78.9944 54° Northeast 424 488 28,800 1,714 Climbing Washington Center
Wed 09:48:42 AM 36.6794 -78.8475 57° Northeast 435 501 30,500 1,484 Climbing Washington Center
Wed 09:50:43 AM 36.8175 -78.5936 56° Northeast 457 526 33,300 1,133 Climbing Washington Center
Wed 09:51:42 AM 36.8981 -78.4514 55° Northeast 457 526 33,900 350 Climbing Washington Center
Wed 09:52:43 AM 36.9636 -78.3239 57° Northeast 465 535 34,000 50 Climbing Washington Center
Wed 09:53:43 AM 37.0400 -78.1731 58° Northeast 471 542 34,000  Level Washington Center
Wed 09:54:41 AM 37.0869 -78.0236 68° East 464 534 34,000 605 Level Washington Center
Wed 09:55:42 AM 37.1336 -77.8739 69° East 459 528 35,200 1,279 Climbing Washington Center
Wed 09:56:43 AM 37.2069 -77.7536 53° Northeast 465 535 36,600 1,587 Climbing Washington Center
Wed 09:57:43 AM 37.3006 -77.6414 44° Northeast 460 529 38,400 1,678 Climbing Washington Center
Wed 09:58:41 AM 37.3900 -77.5314 44° Northeast 455 524 39,900 1,322 Climbing Washington Center
Wed 09:59:41 AM 37.4814 -77.4239 43° Northeast 449 517 41,000 545 Climbing Washington Center
Wed 10:00:42 AM 37.5792 -77.3003 45° Northeast 443 510 41,000  Level Washington Center
Wed 10:01:43 AM 37.6725 -77.1817 45° Northeast 449 517 41,000  Level Washington Center
Wed 10:02:41 AM 37.7617 -77.0681 45° Northeast 455 524 41,000  Level Washington Center
Wed 10:03:42 AM 37.8547 -76.9542 44° Northeast 455 524 41,000  Level Washington Center
Wed 10:04:42 AM 37.9456 -76.8372 45° Northeast 455 524 41,000 -545 Level Washington Center
Wed 10:05:43 AM 38.0344 -76.7228 45° Northeast 455 524 39,900 -1,160 Descending Washington Center
Wed 10:06:41 AM 38.1272 -76.6053 45° Northeast 455 524 38,700 -1,261 Descending Washington Center
Wed 10:07:42 AM 38.2178 -76.4903 45° Northeast 455 524 37,400 -1,279 Descending Washington Center
Wed 10:08:43 AM 38.3125 -76.3750 44° Northeast 461 531 36,100 -1,220 Descending Washington Center
Wed 10:09:40 AM 38.4194 -76.2808 35° Northeast 456 525 35,000 -559 Descending Washington Center
Wed 10:10:41 AM 38.5219 -76.1808 37° Northeast 463 533 35,000 -341 Level Washington Center
Wed 10:11:43 AM 38.6308 -76.0806 36° Northeast 479 551 34,300 -2,016 Descending Washington Center
Wed 10:12:43 AM 38.7397 -75.9750 37° Northeast 479 551 30,900 -2,695 Descending Washington Center
Wed 10:13:41 AM 38.8192 -75.8394 53° Northeast 467 537 29,000 -950 Descending Washington Center
Wed 10:14:43 AM 38.8633 -75.6850 70° East 462 532 29,000  Level Washington Center
Wed 10:15:41 AM 38.9028 -75.5303 72° East 451 519 29,000  Level Washington Center
Wed 10:16:42 AM 38.9422 -75.3781 72° East 451 519 29,000  Level Washington Center
Wed 10:17:43 AM 38.9836 -75.2206 71° East 451 519 29,000  Level Washington Center
Wed 10:18:41 AM 39.0225 -75.0681 72° East 446 513 29,000  Level Washington Center
Wed 10:19:42 AM 39.0614 -74.9125 72° East 446 513 29,000  Level Washington Center
Wed 10:20:42 AM 39.1128 -74.7836 63° Northeast 446 513 29,000  Level Washington Center
Wed 10:21:43 AM 39.1992 -74.6461 51° Northeast 447 514 29,000  Level Washington Center
Wed 10:22:41 AM 39.2733 -74.5353 49° Northeast 447 514 29,000 -857 Level Washington Center
Wed 10:23:42 AM 39.3658 -74.4022 48° Northeast 453 521 27,300 -2,455 Descending Washington Center
Wed 10:25:15 AM 39.4797 -74.2108 52° Northeast 455 524 22,700 -2,532 Descending New York Center
Wed 10:26:16 AM 39.5628 -74.0803 50° Northeast 435 501 20,800 -1,574 Descending New York Center
Wed 10:27:17 AM 39.6369 -73.9653 50° Northeast 411 473 19,500 -1,261 Descending New York Center
Wed 10:28:15 AM 39.7019 -73.8656 50° Northeast 405 466 18,300 -1,250 Descending New York Center
Wed 10:29:17 AM 39.7694 -73.7553 51° Northeast 400 460 17,000 -1,289 Descending New York Center
Wed 10:30:16 AM 39.8389 -73.6472 50° Northeast 389 448 15,700 -1,291 Descending New York Center
Wed 10:31:55 AM 39.9722 -73.4742 45° Northeast 403 464 13,600 -1,057 Descending Boston Center
Wed 10:32:55 AM 40.0500 -73.3806 43° Northeast 388 447 12,900 -318 Descending Boston Center
Wed 10:34:07 AM 40.1278 -73.2867 43° Northeast 377 434 12,900 -682 Level Boston Center
Wed 10:35:07 AM 40.2183 -73.1792 42° Northeast 371 427 11,400 -1,500 Descending Boston Center
Wed 10:36:07 AM 40.2894 -73.0958 42° Northeast 360 414 9,900 -1,250 Descending Boston Center
Wed 10:37:07 AM 40.3547 -73.0172 43° Northeast 338 389 8,900 -446 Descending Boston Center
Wed 10:39:02 AM 40.4833 -72.8667 42° Northeast 311 358 8,600 -99 Descending New York TRACON
Wed 10:40:08 AM 40.5500 -72.7833 44° Northeast 307 353 8,600  Level New York TRACON
Wed 10:41:08 AM 40.6000 -72.7000 52° Northeast 308 354 8,600 -350 Level New York TRACON
Wed 10:42:08 AM 40.6667 -72.6333 37° Northeast 271 312 7,900 -1,350 Descending New York TRACON
Wed 10:43:08 AM 40.7333 -72.6000 21° North 262 302 5,900 -1,500 Descending New York TRACON
Wed 10:44:08 AM 40.8000 -72.5833 11° North 219 252 4,900 -1,650 Descending New York TRACON
Wed 10:45:08 AM 40.8333 -72.5500 37° Northeast 184 212 2,600 -1,850 Descending New York TRACON
Wed 10:46:08 AM 40.8667 -72.5833 323° Northwest 149 171 1,200 -1,400 Descending New York TRACON
Wed 10:48:00 AM 40.8333 -72.6167 246° West  Level FlightAware Approximate
Wed 10:55:00 AM 40.8437 -72.6318 246° West  Level Estimated
Wed 10:56:00 AM 40.8437 -72.6318 246° West  Level Estimated

Login

Don't have an account? Register now (free) for customized features, flight alerts, and more!